www.pogodaiklimat.ru

Погода и климат >> Архив погоды >> Иран >> Yasuj


ПОГОДА в Yasuj

  • Прогноз погоды в Yasuj
  • Монитор погоды в Yasuj
  • Климат города

АРХИВ ПОГОДЫ в Yasuj

Время (UTC), дата Ветер
(напр.,м/с)
 
Видим.   Явления Облачность Т
(С)
Тd
(С)
f
(%)
Тe
(С)
Тes
(С)
Комфортность P
(гПа)
Po
(гПа)
Тmin
(С)
Tmax
(С)
R
(мм)
R24
(мм)
S
(см)
21 18.06 В 3 15 км ясно +20.0 -0.1 26 +20 +20 997.3 815.0
00 19.06 штиль 0 15 км ясно +18.2 -1.5 26 +18 +18 998.3 815.4
03 19.06 штиль 0 15 км ясно +18.2 +2.3 35 +18 +21 1001.5 817.0 +16.0
06 19.06 штиль 0 15 км ясно +27.0 -5.0 12 +24 +44 комфорт 1000.6 816.6
09 19.06 С 2 15 км ясно +33.8 -14.0 4 +29 +51 опасность
солнечного
удара
998.3 815.4
12 19.06 СЗ 3 15 км ясно +33.8 -14.0 4 +29 +38 жарко 998.2 814.8
15 19.06 СЗ 5 15 км ясно +30.6 -11.5 6 +26 +26 жарко 999.3 814.9 +34.0
18 19.06 штиль 0 12 км ясно +23.2 -16.9 6 +20 +20 1001.5 817.0
21 19.06 штиль 0 12 км ясно +19.2 -11.3 12 +19 +19 1002.1 817.4
00 20.06 штиль 0 12 км ясно +14.6 -4.9 26 +15 +15 1002.4 817.5
03 20.06 штиль 0 15 км ясно +17.0 -8.6 17 +17 +20 1003.9 818.4 +13.0
06 20.06 штиль 0 15 км ясно +24.2 -12.2 8 +21 +42 комфорт 1003.4 817.9
09 20.06 штиль 0 15 км ясно +33.6 -13.5 4 +29 +58 опасность
солнечного
удара
1001.3 817.6
12 20.06 ЮЗ 7 15 км ясно +35.0 -18.1 3 +30 +33 жарко 1001.0 816.3
15 20.06 ЮЗ 2 15 км ясно +32.8 -18.7 3 +28 +28 жарко 1001.0 816.5 +36.2
18 20.06 В 4 15 км ясно +24.2 -8.2 11 +22 +22 комфорт 1002.4 817.4
21 20.06 штиль 0 15 км ясно +20.0 -6.6 16 +19 +19 1001.7 817.5
00 21.06 штиль 0 15 км ясно +17.2 -6.0 20 +17 +17 1000.9 817.3
03 21.06 штиль 0 15 км ясно +18.0 -1.2 27 +18 +21 1002.1 818.0 +15.2
06 21.06 штиль 0 15 км ясно +28.2 -6.5 10 +25 +45 комфорт 1001.5 817.7
09 21.06 Ю 6 15 км ясно +34.8 -12.2 4 +30 +39 жарко 999.6 816.7
12 21.06 ЮЗ 3 15 км ясно +34.8 -18.7 3 +30 +39 жарко 1000.3 816.5
15 21.06 ЮВ 4 15 км ясно +31.0 -15.9 4 +27 +28 жарко 1001.3 816.7 +35.8
18 21.06 В 4 12 км ясно +23.6 -10.3 10 +21 +21 комфорт 1002.0 817.9
21 21.06 штиль 0 12 км ясно +20.0 -8.7 14 +19 +19 1001.4 817.2
00 22.06 штиль 0 12 км ясно +15.6 -8.0 19 +16 +16 1000.8 816.6
03 22.06 штиль 0 15 км ясно +17.6 -6.0 19 +18 +20 1001.7 816.9 +14.4
06 22.06 штиль 0 15 км ясно +27.2 -10.0 8 +24 +44 комфорт 1000.7 816.6
09 22.06 Ю 4 15 км ясно +34.4 -14.4 4 +30 +44 жарко 999.1 816.2
12 22.06 ЮЗ 6 15 км ясно +33.8 -18.6 3 +29 +33 жарко 1000.1 815.6
15 22.06 штиль 0 15 км ясно +31.0 -14.8 4 +26 +27 жарко 1000.9 816.1 +35.0
18 22.06 штиль 0 15 км ясно +23.2 -5.8 14 +21 +21 комфорт 1000.7 816.6
21 22.06 штиль 0 15 км ясно +20.0 -5.6 17 +19 +19 998.8 816.2
00 23.06 штиль 0 15 км ясно +17.0 -3.1 25 +17 +17 999.9 816.1
03 23.06 штиль 0 15 км ясно +17.0 -1.0 29 +17 +20 1001.0 816.3 +14.6
06 23.06 штиль 0 15 км ясно +27.6 -4.2 12 +25 +45 комфорт 1000.0 816.2
09 23.06 Ю 2 15 км ясно +35.0 -12.7 4 +30 +52 опасность
солнечного
удара
997.4 815.0
12 23.06 ЮЗ 2 15 км ясно +35.0 -12.6 4 +30 +41 жарко 997.1 814.0
15 23.06 ЮВ 5 15 км ясно +30.0 -4.0 11 +27 +27 жарко 999.1 814.4 +35.6
18 23.06 В 3 12 км ясно +23.6 +1.4 23 +23 +23 комфорт 999.2 815.8
21 23.06 штиль 0 12 км ясно +21.2 -0.6 23 +21 +21 комфорт 997.3 815.5
00 24.06 штиль 0 12 км ясно +17.0 +1.6 35 +17 +17 998.8 815.7
03 24.06 штиль 0 15 км ясно +18.8 +0.9 30 +19 +21 1001.1 816.7 +16.0
06 24.06 штиль 0 12 км ясно +28.2 -2.6 13 +25 +46 комфорт 999.7 816.2
09 24.06 З 2 12 км ясно +34.8 -6.0 7 +30 +52 опасность
солнечного
удара
997.6 815.4
12 24.06 ЮВ 4 12 км ясно +34.8 -6.3 7 +31 +38 жарко 997.9 814.7
15 24.06 ЮВ 3 10 км ясно +30.2 -0.8 13 +27 +27 жарко 999.2 815.2 +36.4
18 24.06 В 3 8000 м пыль ясно +24.2 +1.3 22 +23 +23 комфорт 999.5 816.3
21 24.06 штиль 0 8000 м пыль ясно +20.4 +1.9 29 +20 +20 998.5 816.3
00 25.06 штиль 0 8000 м пыль ясно +18.8 -1.0 26 +19 +19 999.1 816.3
03 25.06 штиль 0 7000 м пыль ясно +19.4 +0.1 27 +19 +22 1001.6 817.3 +16.2
06 25.06 штиль 0 7000 м пыль ясно +28.2 -1.0 15 +26 +46 жарко 1002.3 818.6
09 25.06 штиль 0 9000 м пыль ясно +35.0 -9.6 5 +30 +60 опасность
солнечного
удара
999.1 816.6
12 25.06 ЮЗ 4 12 км ясно +37.6 -5.4 6 +33 +40 жарко 997.3 815.4
15 25.06 ЮВ 3 10 км ясно +32.0 +0.5 13 +29 +29 жарко 998.7 815.4 +38.0
18 25.06 штиль 0 8000 м пыль ясно +25.4 +2.3 22 +24 +24 комфорт 999.1 816.4

 

Местоположение метеостанции Yasuj (Иран): широта 30.67 долгота 51.58 высота над уровнем моря 1837 м.

В архиве по умолчанию представлена погода в Yasuj за последнюю неделю. Архивные данные за месяц целиком и за предыдущие месяцы, начиная с января 2011 года, Вы можете получить, выбрав интересующий диапазон дат из раскрывающегося списка и нажав кнопку "Ввод!".


*Определитесь, кто Вы:
робот инопланетянин человек

Внимание! Время в таблицах - всемирное. Для получения местного времени необходимо прибавить поправку, которая в Yasuj равна 3.5 ч.

Смотрите также архив погоды в соседних городах и на ближайших метеорологических станциях:

Погода в Gach Saran (Иран) (82 км)
Погода в Abadeh (Иран) (118 км)
Погода в Shiraz (Иран) (156 км)
Погода в Omidieh (Иран) (183 км)
Погода в Shahre-Kord (Иран) (192 км)
Погода в Khark (Иран) (198 км)
Погода в Esfahan (Иран) (200 км)
Погода в Bushehr Airport (Иран) (201 км)
Погода в Bushehr (Иран) (204 км)
Погода в Masjed-Soleyman (Иран) (263 км)

Пояснения к столбцам:

Ветер - указаны скорость ветра в м/с - средняя за 10 мин, порывы в срок и между сроками (в фигурных скобках) и направление, откуда дует ветер: С - северный, СВ - северо-восточный, В - восточный, ЮВ - юго-восточный, Ю - южный, ЮЗ - юго-западный, З - западный, СЗ - северо-западный.
Видимость - горизонтальная дальность видимости в метрах или километрах. При видимости от 1 до 10 км при отсутствии осадков обычно наблюдается дымка, при ухудшении видимости до 1 км и менее - туман. В сухую погоду видимость может ухудшаться дымом, пылью или мглою.
Явления - указаны атмосферные явления, наблюдавшиеся в срок или в последний час перед сроком; фигурными скобками обозначены явления, наблюдавшиеся между сроками (за 1-3 часа до срока); квадратными скобками обозначены град или гололедные отложения с указанием их диаметра в мм.
Облачность - указаны через наклонную черту общая и нижняя облачность в баллах и высота нижней границы облаков в метрах; квадратными скобками обозначены формы облаков: Ci - перистые, Cs - перисто-слоистые, Cc - перисто-кучевые, Ac - высококучевые, As - высокослоистые, Sc - слоисто-кучевые, Ns - слоисто-дождевые, Cu - кучевые, Cb - кучево-дождевые. Подробнее классификацию облаков см. в Атласе облаков (PDF).
T - Температура воздуха - температура, измеренная на высоте 2 м над землей.
Td - Температура точки росы - температура, при понижении до которой содержащийся в воздухе водяной пар достигнет насыщения.
f - Относительная влажность воздуха - влажноcть воздуха, измеренная на высоте 2 м над землей.
Te - Эффективная температура - температура, которую ощущает одетый по сезону человек в тени. Характеристика душности погоды. При расчете учитывается влияние влажности воздуха и скорости ветра на теплоощущения человека.
Tes - Эффективная температура на солнце - температура, которую ощущает человек, с поправкой на солнечный нагрев. Характеристика знойности погоды. Зависит от высоты солнца над горизонтом, облачности и скорости ветра. Ночью, в пасмурную погоду, а также при ветре 12 м/с и более поправка равна нулю.
P - Атмосферное давление - приведенное к уровню моря атмосферное давление.
Po - Атмосферное давление - измеренное на уровне метеостанции атмосферное давление.
Tmin - Минимальная температура - минимум температуры воздуха на высоте 2 м над землей.
Tmax - Максимальная температура - максимум температуры воздуха на высоте 2 м над землей.
R - Количество осадков - Количество выпавших осадков за период времени, мм. При наведении курсора мыши на число - период времени, за который выпало указанное количество осадков.
R24 - Количество осадков - Количество выпавших осадков за 24 часа, мм.
S - Снежный покров - Высота снежного покрова, см. При наведении курсора мыши на число - состояние снежного покрова и степень покрытия местности в баллах.